CW1550 Weather Reports


time (UTC)temp
F
wind
direction
speed
knots
gust
knots
rain 1hr
in
rain 24hr
in
rain mn
in
humidity
%
barometer
mb
20260504202504 79 244 4.3 11.3 0.00 0.00 0.00 31 1007.8
20260504201505 80 169 3.5 8.7 0.00 0.00 0.00 31 1007.9
20260504201006 79 144 4.3 8.7 0.00 0.00 0.00 31 1007.9
20260504200011 79 170 3.5 7.8 0.00 0.00 0.00 33 1008.0
20260504195505 78 204 5.2 11.3 0.00 0.00 0.00 32 1008.1
20260504195005 78 243 6.1 12.2 0.00 0.00 0.00 33 1008.1
20260504194504 78 187 7.0 11.3 0.00 0.00 0.00 32 1008.4
20260504193505 78 223 4.3 13.9 0.00 0.00 0.00 33 1008.7
20260504193011 77 161 6.1 12.2 0.00 0.00 0.00 33 1008.7
20260504192505 77 162 5.2 13.9 0.00 0.00 0.00 33 1008.8
20260504192005 77 200 2.6 12.2 0.00 0.00 0.00 33 1008.8
20260504191504 77 218 3.5 10.4 0.00 0.00 0.00 33 1009.0
20260504191005 78 185 9.6 15.6 0.00 0.00 0.00 32 1009.1
20260504190506 78 205 2.6 8.7 0.00 0.00 0.00 34 1009.2
20260504190010 77 265 1.7 6.1 0.00 0.00 0.00 35 1009.2
20260504185505 77 133 5.2 11.3 0.00 0.00 0.00 32 1009.2
20260504185005 77 123 4.3 10.4 0.00 0.00 0.00 32 1009.3
20260504184505 77 215 3.5 8.7 0.00 0.00 0.00 31 1009.4
20260504184005 77 140 6.1 12.2 0.00 0.00 0.00 31 1009.4
20260504183505 77 159 2.6 7.0 0.00 0.00 0.00 31 1009.5
20260504183010 76 135 1.7 6.1 0.00 0.00 0.00 32 1009.5
20260504182505 76 237 3.5 7.8 0.00 0.00 0.00 31 1009.7
20260504181505 76 129 8.7 12.2 0.00 0.00 0.00 31 1009.7
20260504181005 76 126 7.8 13.0 0.00 0.00 0.00 31 1009.7
20260504180504 77 185 3.5 11.3 0.00 0.00 0.00 31 1009.8
20260504180011 76 122 2.6 8.7 0.00 0.00 0.00 32 1009.8
20260504175006 76 276 2.6 7.0 0.00 0.00 0.00 32 1009.9
20260504174505 75 275 2.6 10.4 0.00 0.00 0.00 32 1010.0
20260504173504 74 150 4.3 7.0 0.00 0.00 0.00 33 1010.1
20260504173011 75 187 7.0 13.0 0.00 0.00 0.00 32 1010.1
20260504172505 75 173 6.1 12.2 0.00 0.00 0.00 31 1010.1
20260504172005 75 149 4.3 7.0 0.00 0.00 0.00 31 1010.1
20260504171505 75 140 7.8 12.2 0.00 0.00 0.00 30 1010.3
20260504171005 75 186 2.6 10.4 0.00 0.00 0.00 32 1010.3
20260504170505 74 135 3.5 8.7 0.00 0.00 0.00 33 1010.3
20260504151005 69 195 6.1 12.2 0.00 0.00 0.00 35 1011.9
20260504141005 65 161 4.3 10.4 0.00 0.00 0.00 46 1012.1
20260504140505 64 149 2.6 6.1 0.00 0.00 0.00 46 1012.1
20260504130504 58 219 4.3 7.8 0.00 0.00 0.00 56 1012.5
20260504110505 47 234 0.0 0.0 0.00 0.00 0.00 75 1013.0
20260504082005 46 239 0.0 0.0 0.00 0.00 0.00 73 1013.5
20260504081504 46 239 0.0 0.0 0.00 0.00 0.00 73 1013.5
20260504081004 46 239 0.0 0.0 0.00 0.00 0.00 73 1013.3
20260504050010 45 242 0.0 0.0 0.00 0.00 0.00 68 1013.6
20260504045505 45 242 0.0 0.9 0.00 0.00 0.00 68 1013.7
20260504045005 45 242 0.0 0.0 0.00 0.00 0.00 68 1013.7
20260504044505 46 242 0.0 0.0 0.00 0.00 0.00 68 1013.7
20260504044005 46 242 0.0 0.0 0.00 0.00 0.00 68 1013.7
20260504043506 46 242 0.0 0.0 0.00 0.00 0.00 67 1013.6
20260504043010 46 242 0.0 0.0 0.00 0.00 0.00 67 1013.5
20260504042505 46 242 0.0 1.7 0.00 0.00 0.00 67 1013.5
20260504042005 46 242 0.0 1.7 0.00 0.00 0.00 67 1013.5
20260504041504 46 242 0.9 1.7 0.00 0.00 0.00 67 1013.5
20260504041005 46 242 0.0 0.9 0.00 0.00 0.00 67 1013.4
20260504040505 46 242 0.0 1.7 0.00 0.00 0.00 67 1013.4
20260504040010 46 243 0.9 1.7 0.00 0.00 0.00 66 1013.4
20260504035505 46 243 0.9 1.7 0.00 0.00 0.00 67 1013.4
20260504035004 46 242 0.9 2.6 0.00 0.00 0.00 67 1013.3
20260504034504 46 239 0.0 0.9 0.00 0.00 0.00 66 1013.3
20260504034005 46 239 0.9 1.7 0.00 0.00 0.00 67 1013.3
20260504033504 46 241 0.0 2.6 0.00 0.00 0.00 67 1013.2
20260504032004 47 242 0.0 0.0 0.00 0.00 0.00 66 1013.1
20260504031504 47 242 0.0 0.0 0.00 0.00 0.00 66 1013.1
20260504031005 47 242 0.0 0.0 0.00 0.00 0.00 65 1013.0
20260504030505 47 242 0.0 0.0 0.00 0.00 0.00 65 1013.0
20260504030010 48 242 0.0 0.0 0.00 0.00 0.00 64 1013.0
20260504025505 48 242 0.0 0.0 0.00 0.00 0.00 64 1013.1
20260504025005 48 242 0.0 0.0 0.00 0.00 0.00 62 1013.1
20260504024005 49 242 0.0 0.0 0.00 0.00 0.00 60 1013.0
20260504023504 49 242 0.0 0.0 0.00 0.00 0.00 59 1013.0
20260504023010 49 242 0.0 0.0 0.00 0.00 0.00 58 1013.0
20260504022505 49 242 0.0 0.0 0.00 0.00 0.00 59 1013.1
20260504022005 49 242 0.0 0.0 0.00 0.00 0.00 58 1013.0
20260504021505 50 242 0.0 0.0 0.00 0.00 0.00 57 1013.0
20260504021004 50 242 0.0 0.0 0.00 0.00 0.00 57 1013.0
20260504020505 50 242 0.0 0.0 0.00 0.00 0.00 57 1013.0
20260504020010 50 242 0.0 0.0 0.00 0.00 0.00 56 1012.9
20260504015505 50 242 0.0 0.0 0.00 0.00 0.00 56 1012.9
20260504015006 51 242 0.0 0.0 0.00 0.00 0.00 56 1012.8
20260504014005 51 242 0.0 0.0 0.00 0.00 0.00 53 1012.9
20260504013504 52 242 0.0 0.0 0.00 0.00 0.00 51 1012.8
20260504013010 52 242 0.0 0.0 0.00 0.00 0.00 51 1012.8
20260504012504 52 242 0.0 0.0 0.00 0.00 0.00 52 1012.8
20260504012004 52 242 0.0 0.0 0.00 0.00 0.00 52 1012.8
20260504011505 53 242 0.0 0.0 0.00 0.00 0.00 50 1012.7
20260504010505 53 242 0.0 0.0 0.00 0.00 0.00 47 1012.6
20260504010010 54 242 0.0 0.0 0.00 0.00 0.00 49 1012.7
20260504005504 54 242 0.0 0.0 0.00 0.00 0.00 46 1012.6
20260504005004 54 242 0.0 0.0 0.00 0.00 0.00 46 1012.5
20260504004504 54 242 0.0 0.0 0.00 0.00 0.00 45 1012.4
20260504003504 55 242 0.0 0.9 0.00 0.00 0.00 43 1012.3
20260504003009 55 242 0.9 1.7 0.00 0.00 0.00 42 1012.4
20260504002005 56 242 0.0 0.0 0.00 0.00 0.00 43 1012.3
20260504001504 56 242 0.0 0.0 0.00 0.00 0.00 41 1012.1
20260504001004 57 242 0.0 0.0 0.00 0.00 0.00 40 1012.1
20260504000505 57 242 0.0 0.0 0.00 0.00 0.00 40 1012.1
20260503235004 59 242 0.9 2.6 0.00 0.00 0.00 37 1012.0
20260503234004 59 233 2.6 4.3 0.00 0.00 0.00 35 1011.9
20260503233504 59 274 0.0 1.7 0.00 0.00 0.00 36 1011.8
20260503233010 60 274 0.0 0.9 0.00 0.00 0.00 37 1011.7
20260503232504 60 274 0.9 0.9 0.00 0.00 0.00 36 1011.7
20260503232005 61 274 1.7 2.6 0.00 0.00 0.00 34 1011.6
20260503231004 61 278 0.0 2.6 0.00 0.00 0.00 34 1011.6
20260503230010 62 152 1.7 5.2 0.00 0.00 0.00 33 1011.7
20260503225504 62 260 0.9 1.7 0.00 0.00 0.00 32 1011.7
20260503225005 62 261 1.7 4.3 0.00 0.00 0.00 31 1011.6
20260503224504 62 235 1.7 7.8 0.00 0.00 0.00 30 1011.7
20260503224005 63 294 3.5 8.7 0.00 0.00 0.00 30 1011.8
20260503223505 63 349 0.9 2.6 0.00 0.00 0.00 32 1011.7
20260503223011 63 11 1.7 6.1 0.00 0.00 0.00 31 1011.6
20260503222505 63 282 7.0 11.3 0.00 0.00 0.00 29 1011.7
20260503221505 64 274 2.6 8.7 0.00 0.00 0.00 29 1011.7
20260503221004 64 268 2.6 6.1 0.00 0.00 0.00 28 1011.7
20260503220504 65 314 1.7 5.2 0.00 0.00 0.00 29 1011.7
20260503220010 65 170 2.6 6.1 0.00 0.00 0.00 28 1011.6
20260503215505 65 211 1.7 10.4 0.00 0.00 0.00 28 1011.7
20260503215004 65 273 5.2 8.7 0.00 0.00 0.00 27 1011.6
20260503214505 65 325 5.2 7.8 0.00 0.00 0.00 28 1011.6
20260503214004 65 336 5.2 10.4 0.00 0.00 0.00 27 1011.7
20260503213009 65 287 7.8 11.3 0.00 0.00 0.00 27 1011.6
20260503212504 65 349 7.8 10.4 0.00 0.00 0.00 27 1011.5
20260503212004 65 352 5.2 13.9 0.00 0.00 0.00 28 1011.6
20260503211005 65 229 6.1 11.3 0.00 0.00 0.00 28 1011.5
20260503210504 65 245 5.2 11.3 0.00 0.00 0.00 28 1011.5
20260503210010 65 216 2.6 5.2 0.00 0.00 0.00 29 1011.7
20260503205005 65 339 3.5 15.6 0.00 0.00 0.00 28 1011.7
20260503204504 65 265 2.6 8.7 0.00 0.00 0.00 30 1011.7
20260503204004 64 276 2.6 11.3 0.00 0.00 0.00 31 1011.9
20260503203504 64 245 3.5 17.4 0.00 0.00 0.00 29 1011.8
20260503203011 64 327 8.7 17.4 0.00 0.00 0.00 29 1011.9